User: anonymous   Login
Location: Asheville, NC
(35.6000°N, 82.5500°W)
Time: 09:47:08
(UTC-04:00)
Language:

PicSat - Orbit

View from above orbital plane
View from above orbital plane
View from above satellite
View from above satellite

Ground track
Ground track

The orbit data is extracted from the following two-line orbital elements,

1 43131U 18004W   18290.89848002 +.00001970 +00000-0 +86171-4 0  9998
2 43131 097.5213 353.8983 0010513 037.2080 322.9883 15.23232477042399
Epoch (UTC): 17 October 2018 21:33:48
Eccentricity: 0.0010513
inclination: 97.5213°
perigee height: 489 km
apogee height: 503 km
right ascension of ascending node: 353.8983°
argument of perigee: 37.2080°
revolutions per day: 15.23232477
mean anomaly at epoch: 322.9883°
orbit number at epoch: 4239

The dashed part of the orbit path shows where the satellite is in the earth's shadow,  

DLR